TimeBST,TemperatureF,Dew PointF,Humidity,Sea Level PressureIn,VisibilityMPH,Wind Direction,Wind SpeedMPH,Gust SpeedMPH,PrecipitationIn,Events,Conditions,WindDirDegrees,DateUTC
12:20 AM,48.2,46.4,93,29.53,-9999.0,Calm,Calm,-,N/A,Rain,Light Rain,0,2012-10-11 23:20:00
12:50 AM,48.2,46.4,93,29.53,3.1,West,3.5,-,N/A,Rain,Rain,270,2012-10-11 23:50:00
1:20 AM,48.2,48.2,100,29.53,1.6,West,4.6,-,N/A,Rain,Rain,280,2012-10-12 00:20:00
1:50 AM,48.2,48.2,100,29.50,1.9,WNW,4.6,-,N/A,Rain,Rain,290,2012-10-12 00:50:00
2:20 AM,48.2,46.4,93,29.50,3.7,West,3.5,-,N/A,Rain,Light Rain,260,2012-10-12 01:20:00
2:50 AM,48.2,46.4,93,29.50,-9999.0,West,4.6,-,N/A,Rain,Light Rain,270,2012-10-12 01:50:00
3:20 AM,48.2,46.4,93,29.50,3.1,WSW,5.8,-,N/A,Rain,Light Rain,250,2012-10-12 02:20:00
3:50 AM,48.2,46.4,93,29.47,4.3,West,5.8,-,N/A,Rain,Light Rain,260,2012-10-12 02:50:00
4:20 AM,48.2,46.4,93,29.47,5.0,WSW,4.6,-,N/A,Rain,Light Rain,240,2012-10-12 03:20:00
5:20 AM,48.2,46.4,93,29.47,6.2,West,5.8,-,N/A,Rain,Light Rain,270,2012-10-12 04:20:00
5:50 AM,48.2,46.4,93,29.44,6.2,WSW,6.9,-,N/A,Rain,Light Rain,250,2012-10-12 04:50:00
6:20 AM,48.2,46.4,93,29.44,6.2,West,6.9,-,N/A,Rain,Light Rain,260,2012-10-12 05:20:00
6:50 AM,48.2,46.4,93,29.44,6.2,West,8.1,-,N/A,Rain,Light Rain,270,2012-10-12 05:50:00
7:20 AM,48.2,46.4,93,29.44,6.2,West,8.1,-,N/A,Rain,Light Rain,280,2012-10-12 06:20:00
7:50 AM,48.2,46.4,93,29.44,5.6,West,9.2,-,N/A,Rain,Light Rain,270,2012-10-12 06:50:00
8:20 AM,48.2,44.6,87,29.47,6.2,West,9.2,-,N/A,Rain,Light Rain,270,2012-10-12 07:20:00
8:50 AM,48.2,44.6,87,29.47,6.2,West,6.9,-,N/A,Rain,Light Rain,270,2012-10-12 07:50:00
9:20 AM,48.2,44.6,87,29.47,6.2,West,9.2,-,N/A,Rain,Light Rain,270,2012-10-12 08:20:00
9:50 AM,48.2,44.6,87,29.47,6.2,West,9.2,-,N/A,Rain,Light Rain,270,2012-10-12 08:50:00
10:20 AM,48.2,46.4,93,29.47,6.2,West,9.2,-,N/A,Rain,Light Rain,270,2012-10-12 09:20:00
10:50 AM,48.2,44.6,87,29.47,6.2,West,12.7,-,N/A,,Mostly Cloudy,270,2012-10-12 09:50:00
11:20 AM,48.2,44.6,87,29.47,6.2,West,13.8,-,N/A,,Mostly Cloudy,270,2012-10-12 10:20:00
11:50 AM,50.0,44.6,82,29.47,6.2,West,15.0,-,N/A,,Mostly Cloudy,280,2012-10-12 10:50:00
12:20 PM,48.2,44.6,87,29.47,6.2,West,16.1,-,N/A,,Mostly Cloudy,280,2012-10-12 11:20:00
12:50 PM,50.0,44.6,82,29.50,6.2,West,12.7,-,N/A,,Mostly Cloudy,270,2012-10-12 11:50:00
1:20 PM,50.0,42.8,76,29.50,6.2,West,13.8,-,N/A,,Mostly Cloudy,280,2012-10-12 12:20:00
1:50 PM,50.0,42.8,76,29.50,6.2,West,13.8,-,N/A,,Mostly Cloudy,270,2012-10-12 12:50:00
2:20 PM,50.0,42.8,76,29.50,6.2,West,13.8,-,N/A,,Scattered Clouds,270,2012-10-12 13:20:00
2:50 PM,48.2,42.8,82,29.50,6.2,West,16.1,-,N/A,Rain,Light Rain,270,2012-10-12 13:50:00
3:50 PM,50.0,42.8,76,29.50,6.2,West,12.7,-,N/A,,Mostly Cloudy,270,2012-10-12 14:50:00
4:20 PM,50.0,42.8,76,29.53,6.2,West,10.4,-,N/A,,Mostly Cloudy,260,2012-10-12 15:20:00
4:50 PM,50.0,42.8,76,29.53,6.2,West,13.8,-,N/A,,Mostly Cloudy,270,2012-10-12 15:50:00
5:20 PM,50.0,41.0,71,29.53,6.2,West,11.5,-,N/A,,Mostly Cloudy,270,2012-10-12 16:20:00
5:50 PM,48.2,41.0,76,29.53,6.2,West,10.4,-,N/A,,Mostly Cloudy,270,2012-10-12 16:50:00
6:20 PM,48.2,41.0,76,29.53,6.2,West,10.4,-,N/A,,Mostly Cloudy,260,2012-10-12 17:20:00
6:50 PM,46.4,41.0,81,29.53,6.2,WSW,8.1,-,N/A,,Mostly Cloudy,250,2012-10-12 17:50:00
7:50 PM,46.4,41.0,81,29.56,6.2,WSW,11.5,-,N/A,,Scattered Clouds,250,2012-10-12 18:50:00
8:20 PM,46.4,41.0,81,29.56,6.2,WSW,8.1,-,N/A,,Partly Cloudy,240,2012-10-12 19:20:00
8:50 PM,46.4,41.0,81,29.53,6.2,WSW,10.4,-,N/A,,Partly Cloudy,240,2012-10-12 19:50:00
9:20 PM,46.4,42.8,87,29.53,6.2,WSW,9.2,-,N/A,Rain,Light Rain,240,2012-10-12 20:20:00
9:50 PM,46.4,42.8,87,29.53,6.2,WSW,9.2,-,N/A,Rain,Light Rain,250,2012-10-12 20:50:00
10:20 PM,46.4,41.0,81,29.53,6.2,WSW,10.4,-,N/A,,Scattered Clouds,250,2012-10-12 21:20:00
10:50 PM,46.4,42.8,87,29.53,6.2,WSW,11.5,-,N/A,,Partly Cloudy,240,2012-10-12 21:50:00
11:20 PM,46.4,42.8,87,29.53,6.2,WSW,10.4,-,N/A,,Partly Cloudy,240,2012-10-12 22:20:00
11:50 PM,46.4,41.0,81,29.53,6.2,WSW,11.5,-,N/A,,Scattered Clouds,250,2012-10-12 22:50:00